Location: Bethera
(33.2010°N, 79.7880°W)
Time: 19:29:12
(UTC-04:00)

Amateur Radio Satellites - All Passes

Search period start: 16 September 2014 18:59
Search period end: 17 September 2014 18:59
Location: Bethera, 33.2010°N, 79.7880°W

Satellite Date Start Highest point End Downlink Frequencies (MHz)
Time Altitude Azimuth
Hamsat 16 Sep 19:01:45 19:05:50 40° 262° (W) 19:09:57 145.90 MHz
Saudisat 1A 16 Sep 19:09:18 19:13:10 30° 305° (NW) 19:17:04 436.775 MHz
JAS-2 16 Sep 19:35:34 19:39:44 22° 264° (W) 19:43:45 435.800 - 435.900 CW/SSB, 435.910 FM
SO-67 16 Sep 19:42:05 19:45:31 75° 78° (ENE) 19:48:59 435.3500 MHz FM
KITSAT 1 16 Sep 19:44:39 19:52:08 43° 109° (ESE) 19:59:38 435.175 FM
MaSat-1 16 Sep 19:49:30 19:53:12 66° 250° (WSW) 19:56:19 437.345 MHz
HO-68 16 Sep 20:10:07 20:14:55 20° 61° (ENE) 20:19:43 435.675 MHz FM
AO-40 16 Sep 20:17:30 02:17:17 50° 182° (S) 10:09:38 Beacon 2401.320
STRAND 1 16 Sep 20:22:41 20:27:47 70° 285° (WNW) 20:32:53 ?
KITSAT 1 16 Sep 21:40:11 21:47:31 37° 306° (NW) 21:54:55 435.175 FM
FUNcube-1 16 Sep 21:44:01 21:44:35 10° 65° (ENE) 21:45:09 145.950 - 145.970 MHz USB
HO-68 16 Sep 21:54:49 22:01:54 69° 257° (WSW) 22:09:02 435.675 MHz FM
Oscar 11 16 Sep 21:59:08 22:03:15 44° 74° (ENE) 22:07:25 145.825 FM, Beacon 2401.500 USB
Sapphire 16 Sep 22:00:31 22:04:26 20° 53° (NE) 22:08:20 437.095 MHz 1200 baud AX-25 AFSK
UKube-1 16 Sep 22:12:21 22:16:40 82° 257° (WSW) 22:21:01 145.840 MHz, 145.915 MHz
SO-50 16 Sep 22:21:31 22:23:57 15° 108° (ESE) 22:26:24 436.795 FM
PCSat 16 Sep 22:27:09 22:32:08 36° 59° (ENE) 22:37:05 145.825 MHz
FUNcube-1 16 Sep 23:16:07 23:20:22 59° 260° (W) 23:24:45 145.950 - 145.970 MHz USB
Oscar 11 16 Sep 23:37:46 23:39:36 12° 267° (W) 23:41:27 145.825 FM, Beacon 2401.500 USB
Sapphire 16 Sep 23:42:53 23:48:06 50° 249° (WSW) 23:53:18 437.095 MHz 1200 baud AX-25 AFSK
SO-50 16 Sep 23:59:48 00:04:03 44° 303° (WNW) 00:08:25 436.795 FM
PCSat 17 Sep 00:10:58 00:15:19 25° 253° (WSW) 00:19:38 145.825 MHz
UOSAT-12 17 Sep 00:16:03 00:19:12 19° 109° (ESE) 00:22:24 437.025 FM, 437.400 FM
UOSAT-12 17 Sep 01:54:44 01:59:01 38° 304° (WNW) 02:03:24 437.025 FM, 437.400 FM
PANSAT 17 Sep 01:55:18 01:56:15 11° 156° (SSE) 01:57:13 not established
Oscar 16 17 Sep 02:04:15 02:08:32 26° 96° (E) 02:12:48 437.025 USB, Beacon 2401.1428
ITAMSAT 1 17 Sep 02:41:24 02:45:34 24° 96° (E) 02:49:43 435.822 SSB
AO-Echo 17 Sep 02:41:31 02:45:39 28° 97° (E) 02:49:53 ?
Uribyol 2 17 Sep 02:46:08 02:50:38 29° 97° (E) 02:55:07 436.500 FM
JAS-1B 17 Sep 02:48:22 02:53:24 31° 98° (E) 02:58:26 435.800 - 435.900 CW/SSB
Oscar 19 17 Sep 03:04:29 03:09:40 76° 284° (WNW) 03:14:47 437.125 CW, 437.150 USB
AO-27 17 Sep 03:14:50 03:19:57 55° 101° (E) 03:25:03 436.795 MHz FM
PANSAT 17 Sep 03:32:34 03:35:53 28° 167° (SSE) 03:39:12 not established
Saudisat 1A 17 Sep 03:39:17 03:43:40 63° 60° (ENE) 03:48:01 436.775 MHz
Oscar 16 17 Sep 03:43:21 03:47:48 30° 290° (WNW) 03:52:14 437.025 USB, Beacon 2401.1428
KITSAT 1 17 Sep 03:45:25 03:47:39 11° 36° (NE) 03:49:54 435.175 FM
OPAL 17 Sep 03:45:33 03:46:07 10° 60° (ENE) 03:46:42 ?
Gurwin Techsat 1B 17 Sep 03:50:36 03:55:50 56° 101° (E) 04:01:01 435.225 FM
AO-7 17 Sep 03:53:39 03:54:04 10° 91° (E) 03:54:30 29.400 - 29.500 MHz
ISS 17 Sep 04:02:19 04:05:35 58° 318° (NW) 04:08:53 145.800 FM
AO-Echo 17 Sep 04:20:21 04:24:17 25° 290° (WNW) 04:28:18 ?
ITAMSAT 1 17 Sep 04:20:24 04:25:01 33° 290° (WNW) 04:29:38 435.822 SSB
Uribyol 2 17 Sep 04:25:36 04:29:58 28° 291° (WNW) 04:34:20 436.500 FM
TMSAT-1 17 Sep 04:29:32 04:34:52 83° 284° (WNW) 04:40:09 436.925 FM
JAS-1B 17 Sep 04:39:20 04:43:57 26° 293° (WNW) 04:48:32 435.800 - 435.900 CW/SSB
AO-27 17 Sep 04:56:02 04:58:57 15° 295° (WNW) 05:01:53 436.795 MHz FM
RS-15 17 Sep 04:57:34 05:08:34 69° 113° (ESE) 05:19:21 29.354 - 29.394 USB, Beacon 29.352 USB
PANSAT 17 Sep 05:12:07 05:15:44 40° 180° (S) 05:19:21 not established
OPAL 17 Sep 05:19:04 05:24:13 84° 255° (WSW) 05:29:27 ?
Uosat F 17 Sep 05:27:04 05:32:02 59° 101° (ESE) 05:36:58 435.120 FM
Gurwin Techsat 1B 17 Sep 05:32:17 05:35:16 15° 295° (WNW) 05:38:15 435.225 FM
KITSAT 1 17 Sep 05:37:10 05:45:03 54° 59° (ENE) 05:52:52 435.175 FM
Oscar 10/S400 17 Sep 05:38:00 06:22:12 13° 259° (W) 07:28:21 145.825 - 145.975 CW/USB, Beacon 145.810 USB
AO-7 17 Sep 05:39:35 05:47:53 75° 106° (ESE) 05:56:09 29.400 - 29.500 MHz
STRAND 1 17 Sep 05:59:53 06:00:56 11° 63° (ENE) 06:01:59 ?
JAS-2 17 Sep 06:45:32 06:51:26 50° 101° (E) 06:58:04 435.800 - 435.900 CW/SSB, 435.910 FM
Hamsat 17 Sep 06:51:37 06:55:44 47° 99° (E) 06:59:46 145.90 MHz
PANSAT 17 Sep 06:52:14 06:55:35 29° 192° (SSW) 06:58:57 not established
Uosat F 17 Sep 07:07:53 07:10:16 14° 295° (WNW) 07:12:39 435.120 FM
RS-15 17 Sep 07:12:14 07:21:39 32° 314° (NW) 07:31:04 29.354 - 29.394 USB, Beacon 29.352 USB
KITSAT 1 17 Sep 07:33:23 07:39:56 28° 255° (WSW) 07:46:29 435.175 FM
AO-7 17 Sep 07:34:02 07:39:47 21° 302° (WNW) 07:45:33 29.400 - 29.500 MHz
STRAND 1 17 Sep 07:34:21 07:39:25 75° 258° (WSW) 07:44:31 ?
Hamsat 17 Sep 08:29:46 08:31:12 12° 293° (WNW) 08:32:37 145.90 MHz
JAS-2 17 Sep 08:31:42 08:36:13 22° 292° (WNW) 08:41:07 435.800 - 435.900 CW/SSB, 435.910 FM
PANSAT 17 Sep 08:33:54 08:35:14 12° 203° (SSW) 08:36:35 not established
SO-50 17 Sep 08:35:02 08:39:44 51° 58° (ENE) 08:44:28 436.795 FM
SO-67 17 Sep 08:42:46 08:46:05 46° 284° (WNW) 08:49:23 435.3500 MHz FM
HO-68 17 Sep 09:27:48 09:33:53 29° 97° (E) 09:39:56 435.675 MHz FM
MaSat-1 17 Sep 09:29:50 09:34:48 79° 292° (WNW) 09:39:52 437.345 MHz
Oscar 11 17 Sep 09:53:28 09:54:42 11° 92° (E) 09:55:56 145.825 FM, Beacon 2401.500 USB
UKube-1 17 Sep 10:05:27 10:08:56 23° 97° (E) 10:12:24 145.840 MHz, 145.915 MHz
SO-50 17 Sep 10:17:09 10:19:52 15° 252° (WSW) 10:22:35 436.795 FM
UOSAT-12 17 Sep 10:28:01 10:32:39 57° 59° (ENE) 10:37:12 437.025 FM, 437.400 FM
ISS 17 Sep 10:34:48 10:37:29 22° 35° (NE) 10:40:10 145.800 FM
FUNcube-1 17 Sep 11:09:34 11:13:52 37° 98° (E) 11:18:05 145.950 - 145.970 MHz USB
HO-68 17 Sep 11:14:55 11:21:38 44° 292° (WNW) 11:28:20 435.675 MHz FM
Oscar 11 17 Sep 11:26:55 11:31:06 48° 286° (WNW) 11:35:16 145.825 FM, Beacon 2401.500 USB
UKube-1 17 Sep 11:41:30 11:45:00 24° 290° (WNW) 11:48:31 145.840 MHz, 145.915 MHz
RS-15 17 Sep 11:53:25 11:59:10 15° 28° (NNE) 12:04:58 29.354 - 29.394 USB, Beacon 29.352 USB
UOSAT-12 17 Sep 12:10:25 12:12:15 12° 253° (WSW) 12:14:04 437.025 FM, 437.400 FM
ISS 17 Sep 12:11:17 12:14:12 28° 230° (SW) 12:17:05 145.800 FM
Sapphire 17 Sep 12:37:21 12:42:19 39° 109° (ESE) 12:47:19 437.095 MHz 1200 baud AX-25 AFSK
Oscar 19 17 Sep 12:43:07 12:43:34 10° 63° (ENE) 12:44:01 437.125 CW, 437.150 USB
FUNcube-1 17 Sep 12:46:53 12:49:54 17° 292° (WNW) 12:52:53 145.950 - 145.970 MHz USB
PCSat 17 Sep 13:04:09 13:09:32 79° 114° (ESE) 13:14:58 145.825 MHz
Oscar 16 17 Sep 13:17:18 13:21:30 26° 69° (ENE) 13:25:43 437.025 USB, Beacon 2401.1428
JAS-1B 17 Sep 13:27:44 13:34:42 27° 67° (ENE) 13:40:50 435.800 - 435.900 CW/SSB
AO-Echo 17 Sep 13:51:07 13:54:50 23° 70° (ENE) 13:58:30 ?
ITAMSAT 1 17 Sep 13:55:38 13:59:43 24° 68° (ENE) 14:03:49 435.822 SSB
Uribyol 2 17 Sep 14:00:09 14:04:31 29° 69° (ENE) 14:08:55 436.500 FM
RS-15 17 Sep 14:04:00 14:14:51 54° 55° (NE) 14:26:07 29.354 - 29.394 USB, Beacon 29.352 USB
TMSAT-1 17 Sep 14:11:15 14:12:08 10° 63° (ENE) 14:13:02 436.925 FM
Oscar 19 17 Sep 14:16:58 14:22:09 81° 257° (WSW) 14:27:22 437.125 CW, 437.150 USB
Sapphire 17 Sep 14:21:29 14:25:48 24° 305° (NW) 14:30:10 437.095 MHz 1200 baud AX-25 AFSK
AO-27 17 Sep 14:28:52 14:33:53 54° 73° (ENE) 14:38:55 436.795 MHz FM
AO-7 17 Sep 14:47:31 14:50:30 12° 52° (NE) 14:53:29 29.400 - 29.500 MHz
PCSat 17 Sep 14:50:59 14:53:33 13° 311° (NW) 14:56:08 145.825 MHz
Oscar 16 17 Sep 14:56:07 15:00:40 31° 263° (W) 15:05:15 437.025 USB, Beacon 2401.1428
Gurwin Techsat 1B 17 Sep 15:07:29 15:12:40 58° 74° (ENE) 15:17:53 435.225 FM
JAS-1B 17 Sep 15:15:52 15:24:52 59° 258° (WSW) 15:32:32 435.800 - 435.900 CW/SSB
Oscar 10/S400 17 Sep 15:23:42 15:43:54 36° 150° (SSE) 16:02:30 145.825 - 145.975 CW/USB, Beacon 145.810 USB
AO-Echo 17 Sep 15:29:17 15:33:26 29° 263° (W) 15:37:31 ?
ITAMSAT 1 17 Sep 15:34:24 15:39:00 32° 262° (W) 15:43:37 435.822 SSB
Uribyol 2 17 Sep 15:39:33 15:43:53 27° 263° (W) 15:48:15 436.500 FM
TMSAT-1 17 Sep 15:46:01 15:51:18 81° 257° (WSW) 15:56:37 436.925 FM
AO-27 17 Sep 16:11:01 16:13:39 14° 267° (W) 16:16:17 436.795 MHz FM
RS-15 17 Sep 16:16:50 16:26:49 39° 253° (WSW) 16:37:13 29.354 - 29.394 USB, Beacon 29.352 USB
AO-7 17 Sep 16:33:33 16:41:47 70° 70° (ENE) 16:50:02 29.400 - 29.500 MHz
Uosat F 17 Sep 16:36:13 16:41:02 51° 73° (ENE) 16:45:52 435.120 FM
Gurwin Techsat 1B 17 Sep 16:50:23 16:52:56 14° 267° (W) 16:55:29 435.225 FM
OPAL 17 Sep 17:33:39 17:38:25 37° 100° (E) 17:43:06 ?
Hamsat 17 Sep 17:41:23 17:44:40 21° 70° (ENE) 17:47:57 145.90 MHz
Saudisat 1A 17 Sep 17:41:44 17:45:54 44° 114° (ESE) 17:50:06 436.775 MHz
Uosat F 17 Sep 18:17:30 18:20:03 14° 267° (W) 18:22:36 435.120 FM
AO-7 17 Sep 18:29:14 18:35:03 21° 265° (W) 18:40:54 29.400 - 29.500 MHz
JAS-2 17 Sep 18:39:06 18:44:34 78° 257° (WSW) 18:49:45 435.800 - 435.900 CW/SSB, 435.910 FM
